Salina, KS

2:26 PM CST on February 19, 2018 (GMT -0600)
Salina Municipal

Weather History for KSLN - December, 2013

Change the Weather History Date:

Friday, December 6, 2013

  Actual Average Record
Temperature  
Mean Temperature 13 °F 34 °F  
Max Temperature 19 °F 44 °F 81 °F (1939)
Min Temperature 6 °F 24 °F -5 °F (1950)
Degree Days  
Heating Degree Days 52 31  
Month to date heating degree days 191 179  
Since 1 July heating degree days 1179 1131  
Cooling Degree Days 0 0  
Month to date cooling degree days 0 0  
Year to date cooling degree days 1750 1647  
Moisture  
Dew Point -6 °F    
Average Humidity 47    
Maximum Humidity 60    
Minimum Humidity 33    
Precipitation  
Precipitation T in 0.03 in 0.98 in (1994)
Month to date precipitation T 0.22  
Year to date precipitation 29.41 30.78  
Sea Level Pressure  
Sea Level Pressure 30.59 in    
Wind  
Wind Speed 13 mph (North)    
Max Wind Speed 22 mph    
Max Gust Speed 26 mph    
Visibility 10 miles    
Events Snow    
T = Trace of Precipitation, MM = Missing Value Source: NWS Daily Summary

Daily Weather History Graph

Daily Weather History Graph

Search for Another Location

Airport or City:

Trip Planner

Search our weather history database for the weather conditions in past years. The results will help you decide how hot, cold, wet, or windy it might be!

Date:

Astronomy

Dec. 06, 2013 Rise Set
Actual Time 7:34 AM CST 5:08 PM CST
Civil Twilight 7:05 AM CST 5:38 PM CST
Nautical Twilight 6:32 AM CST 6:11 PM CST
Astronomical Twilight 5:59 AM CST 6:43 PM CST
Moon 10:42 AM CST (12/6) 9:40 PM CST (12/6)
Length of Visible Light 10h 33m
Length of Day
9h 33m
Waxing Crescent, 19% of the Moon is Illuminated
Dec 6
Waxing Crescent
Dec 9
First Quarter
Dec 17
Full
Dec 25
Last Quarter
Jan 1
New

Hourly Weather History & Observations

Time (CST) Temp. Windchill Dew Point Humidity Pressure Visibility Wind Dir Wind Speed Gust Speed Precip Events Conditions
12:53 AM 16.0 °F 2.9 °F -4.0 °F 41% 30.47 in 10.0 mi North 11.5 mph - N/A   Overcast
1:53 AM 16.0 °F 2.9 °F -5.1 °F 39% 30.47 in 10.0 mi North 11.5 mph - N/A   Overcast
2:53 AM 14.0 °F -1.4 °F -4.0 °F 45% 30.49 in 10.0 mi North 15.0 mph - N/A   Overcast
3:53 AM 12.9 °F -5.3 °F -6.0 °F 43% 30.49 in 9.0 mi North 20.7 mph 26.5 mph 0.00 in Snow Light Snow
4:53 AM 12.9 °F -4.4 °F -6.0 °F 43% 30.51 in 10.0 mi North 18.4 mph 21.9 mph 0.00 in   Overcast
5:53 AM 12.9 °F -4.4 °F -7.1 °F 41% 30.51 in 10.0 mi North 18.4 mph - N/A   Overcast
6:53 AM 10.9 °F -4.1 °F -8.0 °F 42% 30.54 in 10.0 mi North 12.7 mph - N/A   Overcast
7:53 AM 10.9 °F -5.9 °F -6.0 °F 47% 30.54 in 10.0 mi North 16.1 mph - N/A   Overcast
8:53 AM 12.0 °F -4.0 °F -6.0 °F 44% 30.55 in 10.0 mi North 15.0 mph - N/A   Overcast
9:53 AM 14.0 °F -0.8 °F -6.0 °F 41% 30.59 in 10.0 mi North 13.8 mph - 0.00 in   Overcast
10:53 AM 15.1 °F 1.1 °F -7.1 °F 37% 30.60 in 10.0 mi North 12.7 mph 20.7 mph 0.00 in   Overcast
11:53 AM 17.1 °F 3.0 °F -7.1 °F 34% 30.61 in 10.0 mi North 13.8 mph 20.7 mph N/A   Overcast
12:53 PM 17.1 °F 2.0 °F -7.1 °F 34% 30.58 in 10.0 mi North 16.1 mph - 0.00 in   Overcast
1:53 PM 18.0 °F 3.6 °F -7.1 °F 33% 30.58 in 10.0 mi North 15.0 mph - 0.00 in   Scattered Clouds
2:53 PM 17.1 °F 2.0 °F -7.1 °F 34% 30.58 in 10.0 mi North 16.1 mph - N/A   Overcast
3:53 PM 16.0 °F 1.7 °F -7.1 °F 36% 30.60 in 10.0 mi North 13.8 mph - 0.00 in   Overcast
4:53 PM 15.1 °F -0.1 °F -7.1 °F 37% 30.62 in 10.0 mi North 15.0 mph - N/A   Overcast
5:53 PM 12.9 °F -0.2 °F -7.1 °F 41% 30.64 in 10.0 mi North 10.4 mph - N/A   Clear
6:53 PM 9.0 °F -2.2 °F -7.1 °F 48% 30.67 in 10.0 mi North 6.9 mph - N/A   Clear
7:53 PM 8.1 °F -3.2 °F -6.0 °F 53% 30.69 in 10.0 mi North 6.9 mph - N/A   Clear
8:53 PM 7.0 °F -1.7 °F -6.0 °F 55% 30.71 in 10.0 mi North 4.6 mph - N/A   Clear
9:53 PM 6.1 °F -4.3 °F -6.0 °F 58% 30.71 in 10.0 mi North 5.8 mph - N/A   Clear
10:53 PM 10.0 °F -2.9 °F -5.1 °F 51% 30.73 in 10.0 mi NNE 9.2 mph - N/A   Clear
11:53 PM 8.1 °F -2.0 °F -5.1 °F 55% 30.74 in 10.0 mi NNE 5.8 mph - N/A   Clear